| time (UTC) | temp F | wind direction | speed knots | gust knots | rain 1hr in | rain 24hr in | rain mn in | humidity % | barometer mb |
| 20260507020732 | 63 | 322 | 2.6 | 5.2 | 0.00 | 0.00 | 0.00 | 73 | 1012.2 |
| 20260507015725 | 64 | 322 | 2.6 | 7.0 | 0.00 | 0.00 | 0.00 | 70 | 1012.2 |
| 20260507015224 | 65 | 340 | 2.6 | 7.0 | 0.00 | 0.00 | 0.00 | 69 | 1012.2 |
| 20260507014722 | 65 | 279 | 1.7 | 7.0 | 0.00 | 0.00 | 0.00 | 68 | 1012.2 |
| 20260507014219 | 66 | 284 | 1.7 | 5.2 | 0.00 | 0.00 | 0.00 | 67 | 1012.3 |
| 20260507013717 | 66 | 316 | 3.5 | 7.0 | 0.00 | 0.00 | 0.00 | 67 | 1012.3 |
| 20260507013216 | 66 | 319 | 3.5 | 7.0 | 0.00 | 0.00 | 0.00 | 67 | 1012.3 |
| 20260507012212 | 66 | 288 | 2.6 | 7.0 | 0.00 | 0.00 | 0.00 | 65 | 1012.2 |
| 20260507011714 | 66 | 262 | 2.6 | 7.0 | 0.00 | 0.00 | 0.00 | 67 | 1012.2 |
| 20260507011212 | 65 | 273 | 3.5 | 9.6 | 0.00 | 0.00 | 0.00 | 67 | 1012.2 |
| 20260507010711 | 65 | 263 | 4.3 | 13.0 | 0.00 | 0.00 | 0.00 | 66 | 1012.2 |
| 20260507005708 | 65 | 255 | 4.3 | 9.6 | 0.00 | 0.00 | 0.00 | 69 | 1012.2 |
| 20260507005206 | 65 | 275 | 4.3 | 13.0 | 0.00 | 0.00 | 0.00 | 67 | 1012.2 |
| 20260507004701 | 66 | 304 | 4.3 | 13.0 | 0.00 | 0.00 | 0.00 | 68 | 1012.3 |
| 20260507004159 | 66 | 303 | 4.3 | 9.6 | 0.00 | 0.00 | 0.00 | 68 | 1012.3 |
| 20260507003658 | 65 | 272 | 5.2 | 11.3 | 0.00 | 0.00 | 0.00 | 68 | 1012.3 |
| 20260507002700 | 67 | 287 | 4.3 | 8.7 | 0.00 | 0.00 | 0.00 | 66 | 1012.1 |
| 20260507002156 | 67 | 11 | 4.3 | 9.6 | 0.00 | 0.00 | 0.00 | 65 | 1012.1 |
| 20260507001654 | 67 | 339 | 4.3 | 9.6 | 0.00 | 0.00 | 0.00 | 64 | 1012.1 |
| 20260507001155 | 68 | 323 | 3.5 | 8.7 | 0.00 | 0.00 | 0.00 | 63 | 1012.0 |
| 20260507000154 | 68 | 311 | 4.3 | 10.4 | 0.00 | 0.00 | 0.00 | 63 | 1012.0 |
| 20260506235651 | 69 | 308 | 4.3 | 9.6 | 0.00 | 0.00 | 0.00 | 63 | 1011.8 |
| 20260506235153 | 68 | 0 | 4.3 | 12.2 | 0.00 | 0.00 | 0.00 | 63 | 1011.8 |
| 20260506234650 | 69 | 355 | 4.3 | 12.2 | 0.00 | 0.00 | 0.00 | 62 | 1011.8 |
| 20260506234151 | 69 | 322 | 3.5 | 9.6 | 0.00 | 0.00 | 0.00 | 64 | 1011.8 |
| 20260506233649 | 69 | 318 | 4.3 | 9.6 | 0.00 | 0.00 | 0.00 | 64 | 1011.8 |
| 20260506233148 | 69 | 310 | 4.3 | 8.7 | 0.00 | 0.00 | 0.00 | 63 | 1011.8 |
| 20260506232650 | 68 | 320 | 5.2 | 12.2 | 0.00 | 0.00 | 0.00 | 65 | 1011.7 |
| 20260506232153 | 68 | 306 | 6.1 | 12.2 | 0.00 | 0.00 | 0.00 | 63 | 1011.7 |
| 20260506231645 | 68 | 313 | 6.1 | 12.2 | 0.00 | 0.00 | 0.00 | 63 | 1011.7 |
| 20260506231142 | 68 | 304 | 7.0 | 12.2 | 0.00 | 0.00 | 0.00 | 64 | 1011.8 |
| 20260506230640 | 67 | 316 | 7.0 | 13.0 | 0.00 | 0.00 | 0.00 | 63 | 1011.8 |
| 20260506230139 | 68 | 267 | 7.0 | 13.0 | 0.00 | 0.00 | 0.00 | 63 | 1011.8 |
| 20260506225637 | 68 | 303 | 7.0 | 13.0 | 0.00 | 0.00 | 0.00 | 64 | 1011.8 |
| 20260506225137 | 68 | 312 | 7.0 | 11.3 | 0.00 | 0.00 | 0.00 | 64 | 1011.8 |
| 20260506224638 | 67 | 305 | 7.8 | 13.0 | 0.00 | 0.00 | 0.00 | 65 | 1011.8 |
| 20260506223134 | 68 | 309 | 6.1 | 12.2 | 0.00 | 0.00 | 0.00 | 65 | 1012.0 |
| 20260506222639 | 68 | 314 | 6.1 | 14.8 | 0.00 | 0.00 | 0.00 | 64 | 1012.2 |
| 20260506222133 | 68 | 302 | 7.0 | 14.8 | 0.00 | 0.00 | 0.00 | 67 | 1012.2 |
| 20260506221630 | 68 | 308 | 6.1 | 13.0 | 0.00 | 0.00 | 0.00 | 66 | 1012.2 |
| 20260506221127 | 68 | 311 | 6.1 | 13.9 | 0.00 | 0.00 | 0.00 | 66 | 1012.3 |
| 20260506220626 | 68 | 281 | 7.0 | 15.6 | 0.00 | 0.00 | 0.00 | 66 | 1012.3 |
| 20260506220127 | 69 | 297 | 6.1 | 15.6 | 0.00 | 0.00 | 0.00 | 64 | 1012.3 |
| 20260506215126 | 68 | 286 | 6.1 | 13.9 | 0.00 | 0.00 | 0.00 | 65 | 1012.4 |
| 20260506213120 | 69 | 292 | 5.2 | 12.2 | 0.00 | 0.00 | 0.00 | 64 | 1012.6 |
| 20260506212620 | 69 | 321 | 6.1 | 12.2 | 0.00 | 0.00 | 0.00 | 64 | 1012.8 |
| 20260506212112 | 69 | 304 | 6.1 | 12.2 | 0.00 | 0.00 | 0.00 | 66 | 1012.8 |
| 20260506211610 | 69 | 315 | 5.2 | 11.3 | 0.00 | 0.00 | 0.00 | 65 | 1012.8 |
| 20260506211107 | 69 | 287 | 6.1 | 10.4 | 0.00 | 0.00 | 0.00 | 65 | 1012.8 |
| 20260506210608 | 69 | 338 | 6.1 | 11.3 | 0.00 | 0.00 | 0.00 | 66 | 1012.8 |
| 20260506210108 | 69 | 304 | 6.1 | 11.3 | 0.00 | 0.00 | 0.00 | 66 | 1012.8 |
| 20260506205105 | 69 | 319 | 6.1 | 12.2 | 0.00 | 0.00 | 0.00 | 67 | 1012.8 |
| 20260506204604 | 68 | 277 | 6.1 | 13.0 | 0.00 | 0.00 | 0.00 | 67 | 1012.8 |
| 20260506203605 | 69 | 316 | 6.1 | 13.9 | 0.00 | 0.00 | 0.00 | 64 | 1012.9 |
| 20260506203101 | 69 | 315 | 6.1 | 13.9 | 0.00 | 0.00 | 0.00 | 66 | 1012.9 |
| 20260506202555 | 70 | 308 | 6.1 | 13.9 | 0.00 | 0.00 | 0.00 | 64 | 1012.9 |
| 20260506201553 | 70 | 333 | 6.1 | 11.3 | 0.00 | 0.00 | 0.00 | 63 | 1012.9 |
| 20260506201049 | 70 | 317 | 5.2 | 11.3 | 0.00 | 0.00 | 0.00 | 63 | 1013.0 |
| 20260506200548 | 70 | 325 | 4.3 | 10.4 | 0.00 | 0.00 | 0.00 | 64 | 1013.0 |
| 20260506200046 | 70 | 323 | 4.3 | 10.4 | 0.00 | 0.00 | 0.00 | 64 | 1013.0 |
| 20260506195546 | 69 | 5 | 6.1 | 13.9 | 0.00 | 0.00 | 0.00 | 65 | 1012.9 |
| 20260506195046 | 69 | 321 | 6.1 | 13.9 | 0.00 | 0.00 | 0.00 | 64 | 1012.9 |
| 20260506194546 | 71 | 28 | 5.2 | 11.3 | 0.00 | 0.00 | 0.00 | 63 | 1012.9 |
| 20260506193541 | 71 | 315 | 6.1 | 11.3 | 0.00 | 0.00 | 0.00 | 63 | 1012.8 |
| 20260506192535 | 73 | 328 | 4.3 | 10.4 | 0.00 | 0.00 | 0.00 | 61 | 1013.0 |
| 20260506192034 | 72 | 319 | 5.2 | 11.3 | 0.00 | 0.00 | 0.00 | 61 | 1013.0 |
| 20260506191534 | 72 | 313 | 5.2 | 11.3 | 0.00 | 0.00 | 0.00 | 61 | 1013.0 |
| 20260506191031 | 71 | 320 | 4.3 | 8.7 | 0.00 | 0.00 | 0.00 | 63 | 1013.2 |
| 20260506190530 | 71 | 316 | 4.3 | 9.6 | 0.00 | 0.00 | 0.00 | 62 | 1013.2 |
| 20260506190025 | 71 | 323 | 4.3 | 9.6 | 0.00 | 0.00 | 0.00 | 62 | 1013.2 |
| 20260506185523 | 71 | 317 | 4.3 | 9.6 | 0.00 | 0.00 | 0.00 | 64 | 1013.3 |
| 20260506184517 | 71 | 315 | 5.2 | 9.6 | 0.00 | 0.00 | 0.00 | 62 | 1013.3 |
| 20260506184021 | 71 | 317 | 4.3 | 9.6 | 0.00 | 0.00 | 0.00 | 62 | 1013.2 |
| 20260506183520 | 71 | 289 | 4.3 | 8.7 | 0.00 | 0.00 | 0.00 | 61 | 1013.2 |
| 20260506183018 | 71 | 305 | 4.3 | 9.6 | 0.00 | 0.00 | 0.00 | 60 | 1013.2 |
| 20260506182514 | 71 | 315 | 4.3 | 10.4 | 0.00 | 0.00 | 0.00 | 61 | 1013.4 |
| 20260506182011 | 71 | 335 | 4.3 | 10.4 | 0.00 | 0.00 | 0.00 | 61 | 1013.4 |
| 20260506181511 | 72 | 297 | 3.5 | 7.8 | 0.00 | 0.00 | 0.00 | 60 | 1013.4 |
| 20260506181010 | 72 | 337 | 3.5 | 7.8 | 0.00 | 0.00 | 0.00 | 58 | 1013.4 |
| 20260506180512 | 72 | 314 | 3.5 | 7.0 | 0.00 | 0.00 | 0.00 | 59 | 1013.4 |
| 20260506180010 | 73 | 351 | 3.5 | 7.0 | 0.00 | 0.00 | 0.00 | 58 | 1013.4 |
| 20260506175512 | 73 | 311 | 2.6 | 6.1 | 0.00 | 0.00 | 0.00 | 59 | 1013.4 |
| 20260506174514 | 74 | 307 | 2.6 | 7.0 | 0.00 | 0.00 | 0.00 | 58 | 1013.4 |
| 20260506174006 | 74 | 34 | 1.7 | 4.3 | 0.00 | 0.00 | 0.00 | 57 | 1013.4 |
| 20260506173502 | 73 | 5 | 1.7 | 6.1 | 0.00 | 0.00 | 0.00 | 55 | 1013.4 |
| 20260506173001 | 73 | 40 | 1.7 | 6.1 | 0.00 | 0.00 | 0.00 | 56 | 1013.4 |
| 20260506172500 | 73 | 34 | 0.9 | 3.5 | 0.00 | 0.00 | 0.00 | 57 | 1013.4 |
| 20260506171455 | 72 | 30 | 1.7 | 4.3 | 0.00 | 0.00 | 0.00 | 59 | 1013.4 |
| 20260506170955 | 72 | 5 | 1.7 | 4.3 | 0.00 | 0.00 | 0.00 | 59 | 1013.4 |
| 20260506170456 | 71 | 0 | 1.7 | 4.3 | 0.00 | 0.00 | 0.00 | 61 | 1013.4 |
| 20260506165950 | 70 | 341 | 1.7 | 3.5 | 0.00 | 0.00 | 0.00 | 60 | 1013.4 |
| 20260506165444 | 70 | 341 | 1.7 | 4.3 | 0.00 | 0.00 | 0.00 | 61 | 1013.4 |
| 20260506164942 | 69 | 344 | 1.7 | 4.3 | 0.00 | 0.00 | 0.00 | 62 | 1013.4 |
| 20260506164442 | 69 | 344 | 1.7 | 3.5 | 0.00 | 0.00 | 0.00 | 64 | 1013.4 |
| 20260506163438 | 68 | 280 | 1.7 | 4.3 | 0.00 | 0.00 | 0.00 | 64 | 1013.3 |
| 20260506162941 | 68 | 285 | 1.7 | 6.1 | 0.00 | 0.00 | 0.00 | 65 | 1013.3 |
| 20260506162440 | 67 | 289 | 1.7 | 6.1 | 0.00 | 0.00 | 0.00 | 65 | 1013.4 |
| 20260506161938 | 68 | 297 | 1.7 | 4.3 | 0.00 | 0.00 | 0.00 | 65 | 1013.4 |
| 20260506161441 | 67 | 355 | 1.7 | 4.3 | 0.00 | 0.00 | 0.00 | 66 | 1013.4 |
| 20260506160435 | 66 | 355 | 1.7 | 4.3 | 0.00 | 0.00 | 0.00 | 68 | 1013.4 |
| 20260506155935 | 65 | 355 | 1.7 | 3.5 | 0.00 | 0.00 | 0.00 | 71 | 1013.3 |
| 20260506154931 | 64 | 236 | 1.7 | 4.3 | 0.00 | 0.00 | 0.00 | 75 | 1013.5 |
| 20260506154429 | 63 | 311 | 1.7 | 6.1 | 0.00 | 0.00 | 0.00 | 75 | 1013.5 |
| 20260506153928 | 63 | 272 | 1.7 | 6.1 | 0.00 | 0.00 | 0.00 | 76 | 1013.7 |
| 20260506152925 | 62 | 343 | 1.7 | 3.5 | 0.00 | 0.00 | 0.00 | 77 | 1013.7 |
| 20260506151927 | 61 | 320 | 1.7 | 4.3 | 0.00 | 0.00 | 0.00 | 80 | 1013.8 |
| 20260506151422 | 60 | 320 | 1.7 | 4.3 | 0.00 | 0.00 | 0.00 | 81 | 1013.8 |
| 20260506150921 | 60 | 317 | 0.9 | 3.5 | 0.00 | 0.00 | 0.00 | 84 | 1013.8 |
| 20260506150418 | 59 | 317 | 1.7 | 3.5 | 0.00 | 0.00 | 0.00 | 87 | 1013.8 |
| 20260506145914 | 58 | 317 | 1.7 | 3.5 | 0.00 | 0.00 | 0.00 | 90 | 1013.7 |
| 20260506145416 | 57 | 317 | 1.7 | 3.5 | 0.00 | 0.00 | 0.00 | 92 | 1013.7 |
| 20260506144909 | 56 | 269 | 0.9 | 2.6 | 0.00 | 0.00 | 0.00 | 94 | 1013.7 |
| 20260506144412 | 56 | 269 | 0.0 | 2.6 | 0.00 | 0.00 | 0.00 | 95 | 1013.7 |
| 20260506143914 | 55 | 269 | 0.0 | 2.6 | 0.00 | 0.00 | 0.00 | 95 | 1013.3 |
| 20260506143408 | 55 | 268 | 0.9 | 1.7 | 0.00 | 0.00 | 0.00 | 95 | 1013.3 |
| 20260506142404 | 54 | 268 | 0.0 | 0.9 | 0.00 | 0.00 | 0.00 | 97 | 1013.2 |
| 20260506141858 | 53 | 268 | 0.0 | 0.9 | 0.00 | 0.00 | 0.00 | 97 | 1013.2 |
| 20260506141358 | 52 | 268 | 0.0 | 0.9 | 0.00 | 0.00 | 0.00 | 97 | 1013.1 |
| 20260506140856 | 51 | 268 | 0.0 | 1.7 | 0.00 | 0.00 | 0.00 | 96 | 1013.1 |
| 20260506140355 | 50 | 268 | 0.0 | 2.6 | 0.00 | 0.00 | 0.00 | 96 | 1013.1 |
| 20260506135852 | 50 | 268 | 0.0 | 2.6 | 0.00 | 0.00 | 0.00 | 96 | 1013.0 |
| 20260506134854 | 49 | 268 | 0.0 | 1.7 | 0.00 | 0.00 | 0.00 | 96 | 1013.0 |
| 20260506134351 | 48 | 268 | 0.0 | 0.0 | 0.00 | 0.00 | 0.00 | 95 | 1013.0 |
| 20260506133352 | 48 | 268 | 0.0 | 0.9 | 0.00 | 0.00 | 0.00 | 95 | 1013.0 |
| 20260506132848 | 48 | 268 | 0.0 | 0.9 | 0.00 | 0.00 | 0.00 | 95 | 1012.8 |
| 20260506131852 | 48 | 268 | 0.0 | 1.7 | 0.00 | 0.00 | 0.00 | 95 | 1012.8 |
| 20260506131342 | 47 | 268 | 0.0 | 1.7 | 0.00 | 0.00 | 0.00 | 95 | 1012.7 |
| 20260506130838 | 47 | 268 | 0.0 | 1.7 | 0.00 | 0.00 | 0.00 | 95 | 1012.7 |
| 20260506130335 | 47 | 268 | 0.0 | 1.7 | 0.00 | 0.00 | 0.00 | 95 | 1012.7 |
| 20260506125834 | 47 | 268 | 0.0 | 1.7 | 0.00 | 0.00 | 0.00 | 95 | 1012.6 |
| 20260506125336 | 47 | 268 | 0.0 | 0.0 | 0.00 | 0.00 | 0.00 | 95 | 1012.6 |
| 20260506124832 | 47 | 268 | 0.0 | 0.0 | 0.00 | 0.00 | 0.00 | 94 | 1012.6 |
| 20260506124328 | 47 | 268 | 0.0 | 0.0 | 0.00 | 0.00 | 0.00 | 94 | 1012.6 |
| 20260506123831 | 47 | 268 | 0.0 | 0.0 | 0.00 | 0.00 | 0.00 | 94 | 1012.6 |
| 20260506123328 | 47 | 268 | 0.0 | 0.0 | 0.00 | 0.00 | 0.00 | 95 | 1012.6 |
| 20260506121815 | 47 | 268 | 0.0 | 0.0 | 0.00 | 0.00 | 0.00 | 94 | 1012.5 |
| 20260506121314 | 48 | 268 | 0.0 | 0.0 | 0.00 | 0.00 | 0.00 | 94 | 1012.5 |
| 20260506120819 | 48 | 268 | 0.0 | 0.0 | 0.00 | 0.00 | 0.00 | 95 | 1012.5 |
| 20260506120314 | 48 | 268 | 0.0 | 0.0 | 0.00 | 0.00 | 0.00 | 94 | 1012.5 |
| 20260506115807 | 48 | 268 | 0.0 | 0.0 | 0.00 | 0.00 | 0.00 | 94 | 1012.6 |
| 20260506115307 | 48 | 268 | 0.0 | 0.0 | 0.00 | 0.00 | 0.00 | 94 | 1012.6 |
| 20260506114800 | 48 | 268 | 0.0 | 0.0 | 0.00 | 0.00 | 0.00 | 94 | 1012.6 |
| 20260506114257 | 48 | 268 | 0.0 | 0.0 | 0.00 | 0.00 | 0.00 | 94 | 1012.6 |
| 20260506113756 | 48 | 268 | 0.0 | 0.0 | 0.00 | 0.00 | 0.00 | 94 | 1012.6 |
| 20260506112749 | 48 | 268 | 0.0 | 0.0 | 0.00 | 0.00 | 0.00 | 94 | 1012.6 |
| 20260506111746 | 48 | 268 | 0.0 | 0.0 | 0.00 | 0.00 | 0.00 | 94 | 1012.6 |
| 20260506111242 | 48 | 268 | 0.0 | 0.0 | 0.00 | 0.00 | 0.00 | 94 | 1012.6 |
| 20260506110737 | 48 | 268 | 0.0 | 1.7 | 0.00 | 0.00 | 0.00 | 94 | 1012.6 |
| 20260506110236 | 48 | 268 | 0.0 | 1.7 | 0.00 | 0.00 | 0.00 | 94 | 1012.6 |
| 20260506105732 | 48 | 268 | 0.0 | 0.0 | 0.00 | 0.00 | 0.00 | 93 | 1012.6 |
| 20260506105229 | 48 | 268 | 0.0 | 0.0 | 0.00 | 0.00 | 0.00 | 94 | 1012.6 |
| 20260506104723 | 48 | 268 | 0.0 | 0.0 | 0.00 | 0.00 | 0.00 | 94 | 1012.6 |
| 20260506104227 | 48 | 268 | 0.0 | 0.0 | 0.00 | 0.00 | 0.00 | 94 | 1012.6 |
| 20260506103722 | 48 | 268 | 0.0 | 0.0 | 0.00 | 0.00 | 0.00 | 93 | 1012.6 |
| 20260506102718 | 49 | 268 | 0.0 | 0.0 | 0.00 | 0.00 | 0.00 | 93 | 1012.6 |
| 20260506101717 | 49 | 268 | 0.0 | 0.0 | 0.00 | 0.00 | 0.00 | 94 | 1012.6 |
| 20260506101213 | 49 | 268 | 0.0 | 0.0 | 0.00 | 0.00 | 0.00 | 93 | 1012.5 |
| 20260506100710 | 49 | 268 | 0.0 | 0.0 | 0.00 | 0.00 | 0.00 | 93 | 1012.5 |
| 20260506100211 | 49 | 268 | 0.0 | 0.0 | 0.00 | 0.00 | 0.00 | 93 | 1012.5 |
| 20260506095708 | 49 | 268 | 0.0 | 0.0 | 0.00 | 0.00 | 0.00 | 93 | 1012.5 |
| 20260506095207 | 49 | 268 | 0.0 | 0.0 | 0.00 | 0.00 | 0.00 | 93 | 1012.5 |
| 20260506094701 | 49 | 268 | 0.0 | 0.0 | 0.00 | 0.00 | 0.00 | 93 | 1012.5 |
| 20260506094202 | 49 | 268 | 0.0 | 0.0 | 0.00 | 0.00 | 0.00 | 93 | 1012.5 |
| 20260506093656 | 50 | 268 | 0.0 | 0.0 | 0.00 | 0.00 | 0.00 | 93 | 1012.5 |
| 20260506093156 | 50 | 268 | 0.0 | 0.9 | 0.00 | 0.00 | 0.00 | 93 | 1012.5 |
| 20260506092657 | 50 | 268 | 0.0 | 0.9 | 0.00 | 0.00 | 0.00 | 93 | 1012.5 |
| 20260506092157 | 50 | 268 | 0.0 | 0.0 | 0.00 | 0.00 | 0.00 | 93 | 1012.5 |
| 20260506091653 | 50 | 268 | 0.0 | 0.9 | 0.00 | 0.00 | 0.00 | 93 | 1012.6 |
| 20260506091147 | 50 | 268 | 0.0 | 1.7 | 0.00 | 0.00 | 0.00 | 92 | 1012.8 |
| 20260506090644 | 50 | 268 | 0.0 | 1.7 | 0.00 | 0.00 | 0.00 | 93 | 1012.8 |
| 20260506090138 | 50 | 268 | 0.0 | 0.0 | 0.00 | 0.00 | 0.00 | 92 | 1012.8 |
| 20260506085637 | 50 | 268 | 0.0 | 0.0 | 0.00 | 0.00 | 0.00 | 93 | 1012.9 |
| 20260506085131 | 50 | 268 | 0.0 | 0.0 | 0.00 | 0.00 | 0.00 | 93 | 1012.9 |
| 20260506084632 | 50 | 268 | 0.0 | 0.0 | 0.00 | 0.00 | 0.00 | 92 | 1012.9 |
| 20260506084132 | 50 | 268 | 0.0 | 0.0 | 0.00 | 0.00 | 0.00 | 92 | 1013.0 |
| 20260506082619 | 51 | 268 | 0.0 | 0.0 | 0.00 | 0.00 | 0.00 | 92 | 1013.1 |
| 20260506081609 | 51 | 268 | 0.0 | 0.9 | 0.00 | 0.00 | 0.00 | 91 | 1013.1 |
| 20260506081110 | 51 | 268 | 0.0 | 0.9 | 0.00 | 0.00 | 0.00 | 92 | 1013.0 |
| 20260506080606 | 51 | 268 | 0.0 | 1.7 | 0.00 | 0.00 | 0.00 | 91 | 1013.0 |
| 20260506073045 | 53 | 268 | 0.0 | 2.6 | 0.00 | 0.00 | 0.00 | 91 | 1012.9 |
| 20260506072543 | 53 | 268 | 0.0 | 2.6 | 0.00 | 0.00 | 0.00 | 91 | 1012.7 |
| 20260506071541 | 53 | 268 | 0.0 | 1.7 | 0.00 | 0.00 | 0.00 | 90 | 1012.7 |
| 20260506071038 | 53 | 268 | 0.0 | 1.7 | 0.00 | 0.00 | 0.00 | 90 | 1012.7 |
| 20260506070539 | 53 | 268 | 0.0 | 1.7 | 0.00 | 0.00 | 0.00 | 90 | 1012.7 |
| 20260506062016 | 55 | 268 | 0.0 | 1.7 | 0.00 | 0.00 | 0.00 | 89 | 1012.5 |
| 20260506061517 | 55 | 268 | 0.0 | 1.7 | 0.00 | 0.00 | 0.00 | 88 | 1012.5 |
| 20260506061017 | 55 | 268 | 0.9 | 2.6 | 0.00 | 0.00 | 0.00 | 89 | 1012.5 |
| 20260506050956 | 55 | 297 | 0.9 | 3.5 | 0.00 | 0.00 | 0.00 | 88 | 1012.1 |
| 20260506050456 | 55 | 297 | 0.9 | 2.6 | 0.00 | 0.00 | 0.00 | 87 | 1012.1 |
| 20260506044950 | 55 | 297 | 0.9 | 2.6 | 0.00 | 0.00 | 0.00 | 87 | 1012.1 |
| 20260506044447 | 55 | 297 | 0.9 | 2.6 | 0.00 | 0.00 | 0.00 | 87 | 1012.1 |
| 20260506043942 | 55 | 297 | 0.9 | 3.5 | 0.00 | 0.00 | 0.00 | 87 | 1012.0 |
| 20260506043443 | 56 | 297 | 0.9 | 4.3 | 0.00 | 0.00 | 0.00 | 87 | 1012.0 |
| 20260506042438 | 56 | 297 | 1.7 | 4.3 | 0.00 | 0.00 | 0.00 | 87 | 1011.8 |
| 20260506041436 | 56 | 302 | 1.7 | 6.1 | 0.00 | 0.00 | 0.00 | 87 | 1011.8 |
| 20260506040934 | 56 | 286 | 0.9 | 3.5 | 0.00 | 0.00 | 0.00 | 87 | 1011.6 |
| 20260506040431 | 56 | 286 | 1.7 | 6.1 | 0.00 | 0.00 | 0.00 | 87 | 1011.6 |
| 20260506035426 | 56 | 314 | 2.6 | 7.0 | 0.00 | 0.00 | 0.00 | 87 | 1011.2 |
| 20260506034928 | 56 | 291 | 3.5 | 11.3 | 0.00 | 0.00 | 0.00 | 87 | 1011.2 |
| 20260506034433 | 56 | 281 | 3.5 | 11.3 | 0.00 | 0.00 | 0.00 | 87 | 1011.2 |
| 20260506033926 | 56 | 286 | 3.5 | 7.8 | 0.00 | 0.00 | 0.00 | 87 | 1011.0 |
| 20260506033425 | 56 | 287 | 2.6 | 8.7 | 0.00 | 0.00 | 0.00 | 86 | 1011.0 |
| 20260506032926 | 56 | 289 | 3.5 | 8.7 | 0.00 | 0.00 | 0.00 | 86 | 1011.0 |
| 20260506032426 | 56 | 295 | 4.3 | 9.6 | 0.00 | 0.00 | 0.00 | 85 | 1010.7 |
| 20260506031924 | 56 | 275 | 4.3 | 9.6 | 0.00 | 0.00 | 0.00 | 85 | 1010.7 |
| 20260506031422 | 56 | 286 | 4.3 | 13.0 | 0.00 | 0.00 | 0.00 | 85 | 1010.7 |
| 20260506030923 | 56 | 292 | 4.3 | 13.0 | 0.00 | 0.00 | 0.00 | 85 | 1010.7 |
| 20260506030422 | 57 | 290 | 3.5 | 8.7 | 0.00 | 0.00 | 0.00 | 84 | 1010.7 |
| 20260506025919 | 57 | 313 | 3.5 | 7.0 | 0.00 | 0.00 | 0.00 | 84 | 1010.7 |
| 20260506025420 | 57 | 293 | 2.6 | 7.0 | 0.00 | 0.00 | 0.00 | 84 | 1010.4 |
| 20260506024924 | 57 | 284 | 2.6 | 5.2 | 0.00 | 0.00 | 0.00 | 83 | 1010.4 |
| 20260506024423 | 57 | 302 | 2.6 | 5.2 | 0.00 | 0.00 | 0.00 | 83 | 1010.4 |
| 20260506023916 | 57 | 286 | 3.5 | 7.8 | 0.00 | 0.00 | 0.00 | 83 | 1010.3 |
| 20260506023412 | 57 | 263 | 3.5 | 8.7 | 0.00 | 0.00 | 0.00 | 82 | 1010.3 |
| 20260506022910 | 57 | 288 | 3.5 | 10.4 | 0.00 | 0.00 | 0.00 | 82 | 1010.2 |
| 20260506022405 | 58 | 273 | 3.5 | 10.4 | 0.00 | 0.00 | 0.00 | 82 | 1010.2 |
| 20260506021905 | 58 | 279 | 2.6 | 8.7 | 0.00 | 0.00 | 0.00 | 81 | 1010.2 |
| 20260506021405 | 58 | 294 | 3.5 | 8.7 | 0.00 | 0.00 | 0.00 | 81 | 1010.1 |